Weather History for Pampa / Mesa Vista, TX

Change the Weather History Date:

Tuesday, October 1, 2013

  Actual Average (KBGD) Record (KBGD)
Temperature  
Mean Temperature 66 °F 66 °F  
Max Temperature 82 °F 78 °F 97 °F (2000)
Min Temperature 50 °F 54 °F 37 °F (1965)
Degree Days  
Heating Degree Days 0 3  
Month to date heating degree days 3  
Since 1 July heating degree days 31  
Cooling Degree Days 1 4  
Month to date cooling degree days 4  
Year to date cooling degree days 1789  
Growing Degree Days 16 (Base 50)    
Moisture  
Dew Point 53 °F    
Average Humidity 63    
Maximum Humidity 94    
Minimum Humidity 35    
Precipitation  
Precipitation 0.00 in 0.08 in 0.68 in (1981)
Month to date precipitation 0.08  
Year to date precipitation 18.47  
Snow  
Snow 0.00 in - 0.00 in (2013)
Month to date snowfall  
Since 1 July snowfall  
Since 1 September snowfall  
Snow Depth -    
Sea Level Pressure  
Sea Level Pressure 29.87 in    
Wind  
Wind Speed 5 mph (SE)    
Max Wind Speed 14 mph    
Max Gust Speed 21 mph    
Visibility 10 miles    
Events      
T = Trace of Precipitation, MM = Missing Value Source: NWS Daily Summary

Daily Weather History Graph

Daily Weather History Graph

Search for Another Location

Airport:

Trip Planner

Search our weather history database for the weather conditions in past years. The results will help you decide how hot, cold, wet, or windy it might be!

Date:

Astronomy

Oct. 01, 2013 Rise Set
Actual Time 7:39 AM CDT 7:27 PM CDT
Civil Twilight 7:13 AM CDT 7:52 PM CDT
Nautical Twilight 6:44 AM CDT 8:22 PM CDT
Astronomical Twilight 6:14 AM CDT 8:52 PM CDT
Moon 4:20 AM CDT (10/1) 5:27 PM CDT (10/1)
Length of Visible Light 12h 39m
Length of Day
11h 48m
Waning Crescent, 12% of the Moon is Illuminated
Oct 1
Waning Crescent
Oct 4
New
Oct 11
First Quarter
Oct 18
Full
Oct 26
Last Quarter

Hourly Weather History & Observations

Time (CDT) Temp. Heat Index Dew Point Humidity Pressure Visibility Wind Dir Wind Speed Gust Speed Precip Events Conditions
12:15 AM 64.4 °F - 51.8 °F 64% 29.82 in 10.0 mi South 4.6 mph - N/A   Clear
12:35 AM 62.6 °F - 51.8 °F 68% 29.82 in 10.0 mi SSE 3.5 mph - N/A   Clear
12:55 AM 64.4 °F - 51.8 °F 64% 29.82 in 10.0 mi SSE 12.7 mph 18.4 mph N/A   Clear
1:15 AM 64.4 °F - 51.8 °F 64% 29.82 in 10.0 mi SSW 5.8 mph - N/A   Clear
1:35 AM 62.6 °F - 51.8 °F 68% 29.82 in 10.0 mi SSW 3.5 mph - N/A   Clear
1:55 AM 60.8 °F - 51.8 °F 72% 29.82 in 10.0 mi Calm Calm - N/A   Clear
2:15 AM 60.8 °F - 51.8 °F 72% 29.82 in 10.0 mi SW 5.8 mph - N/A   Clear
2:35 AM 62.6 °F - 51.8 °F 68% 29.82 in 10.0 mi South 4.6 mph - N/A   Clear
2:55 AM 59.0 °F - 51.8 °F 77% 29.82 in 10.0 mi West 3.5 mph - N/A   Clear
3:15 AM 60.8 °F - 51.8 °F 72% 29.82 in 10.0 mi Calm Calm - N/A   Clear
3:35 AM 60.8 °F - 51.8 °F 72% 29.82 in 10.0 mi Calm Calm - N/A   Clear
3:55 AM 59.0 °F - 51.8 °F 77% 29.81 in 10.0 mi SSW 3.5 mph - N/A   Clear
4:15 AM 57.2 °F - 50.0 °F 77% 29.81 in 10.0 mi Calm Calm - N/A   Clear
4:35 AM 59.0 °F - 51.8 °F 77% 29.81 in 10.0 mi Calm Calm - N/A   Clear
4:55 AM 57.2 °F - 50.0 °F 77% 29.81 in 10.0 mi South 4.6 mph - N/A   Clear
5:15 AM 53.6 °F - 50.0 °F 88% 29.82 in 10.0 mi Calm Calm - N/A   Clear
5:35 AM 53.6 °F - 48.2 °F 82% 29.82 in 10.0 mi South 3.5 mph - N/A   Clear
5:55 AM 53.6 °F - 50.0 °F 88% 29.82 in 10.0 mi SSW 3.5 mph - N/A   Clear
6:15 AM 55.4 °F - 50.0 °F 82% 29.83 in 10.0 mi Calm Calm - N/A   Clear
6:35 AM 53.6 °F - 50.0 °F 88% 29.83 in 10.0 mi SSE 3.5 mph - N/A   Clear
6:55 AM 51.8 °F - 48.2 °F 88% 29.84 in 10.0 mi SSE 3.5 mph - N/A   Clear
7:15 AM 50.0 °F - 46.4 °F 87% 29.84 in 10.0 mi Calm Calm - N/A   Clear
7:35 AM 51.8 °F - 48.2 °F 88% 29.84 in 10.0 mi Calm Calm - N/A   Clear
7:55 AM 50.0 °F - 46.4 °F 87% 29.85 in 10.0 mi Calm Calm - N/A   Clear
8:15 AM 50.0 °F - 46.4 °F 87% 29.86 in 10.0 mi Calm Calm - N/A   Clear
8:35 AM 51.8 °F - 50.0 °F 94% 29.87 in 10.0 mi Calm Calm - N/A   Clear
8:55 AM 53.6 °F - 51.8 °F 94% 29.87 in 10.0 mi Calm Calm - N/A   Clear
9:15 AM 57.2 °F - 51.8 °F 82% 29.87 in 10.0 mi Calm Calm - N/A   Clear
9:35 AM 59.0 °F - 51.8 °F 77% 29.88 in 10.0 mi Calm Calm - N/A   Clear
9:55 AM 60.8 °F - 53.6 °F 77% 29.88 in 10.0 mi Calm Calm - N/A   Clear
10:15 AM 62.6 °F - 53.6 °F 72% 29.88 in 10.0 mi Calm Calm - N/A   Clear
10:35 AM 64.4 °F - 53.6 °F 68% 29.89 in 10.0 mi Calm Calm - N/A   Clear
10:55 AM 68.0 °F - 53.6 °F 60% 29.90 in 10.0 mi Calm Calm - N/A   Clear
11:15 AM 68.0 °F - 53.6 °F 60% 29.90 in 10.0 mi Calm Calm - N/A   Clear
11:35 AM 69.8 °F - 53.6 °F 56% 29.90 in 10.0 mi ENE 4.6 mph - N/A   Clear
11:55 AM 71.6 °F - 53.6 °F 53% 29.90 in 10.0 mi NE 6.9 mph - N/A   Clear
12:15 PM 73.4 °F - 53.6 °F 50% 29.90 in 10.0 mi ENE 4.6 mph - N/A   Clear
12:35 PM 75.2 °F - 53.6 °F 47% 29.90 in 10.0 mi ENE 8.1 mph - N/A   Clear
12:55 PM 77.0 °F - 53.6 °F 44% 29.90 in 10.0 mi East 9.2 mph - N/A   Clear
1:15 PM 77.0 °F - 53.6 °F 44% 29.90 in 10.0 mi East 6.9 mph - N/A   Clear
1:35 PM 78.8 °F - 51.8 °F 39% 29.89 in 10.0 mi East 10.4 mph 16.1 mph N/A   Clear
1:55 PM 78.8 °F - 51.8 °F 39% 29.89 in 10.0 mi East 9.2 mph - N/A   Clear
2:15 PM 80.6 °F - 51.8 °F 37% 29.89 in 10.0 mi East 6.9 mph - N/A   Unknown
2:35 PM 78.8 °F - 51.8 °F 39% 29.88 in 10.0 mi ESE 8.1 mph - N/A   Clear
2:55 PM 80.6 °F - 51.8 °F 37% 29.88 in 10.0 mi East 9.2 mph - N/A   Clear
3:15 PM 80.6 °F - 51.8 °F 37% 29.88 in 10.0 mi East 6.9 mph 18.4 mph N/A   Clear
3:35 PM 82.4 °F - 51.8 °F 35% 29.87 in 10.0 mi East 11.5 mph 17.3 mph N/A   Clear
3:55 PM 82.4 °F - 51.8 °F 35% 29.87 in 10.0 mi SE 9.2 mph - N/A   Unknown
4:15 PM 82.4 °F - 51.8 °F 35% 29.87 in 10.0 mi SE 12.7 mph - N/A   Clear
4:35 PM 82.4 °F - 51.8 °F 35% 29.87 in 10.0 mi SE 10.4 mph 19.6 mph N/A   Clear
4:55 PM 82.4 °F 81.4 °F 53.6 °F 37% 29.87 in 10.0 mi SE 13.8 mph 17.3 mph N/A   Clear
5:15 PM 82.4 °F - 51.8 °F 35% 29.87 in 10.0 mi SSE 12.7 mph 20.7 mph N/A   Clear
5:35 PM 82.4 °F - 51.8 °F 35% 29.87 in 10.0 mi SSE 9.2 mph - N/A   Clear
5:55 PM 82.4 °F 81.4 °F 53.6 °F 37% 29.87 in 10.0 mi SSE 10.4 mph - N/A   Clear
6:15 PM 82.4 °F 81.4 °F 53.6 °F 37% 29.87 in 10.0 mi SE 10.4 mph 19.6 mph N/A   Clear
6:35 PM 80.6 °F 80.5 °F 55.4 °F 42% 29.87 in 10.0 mi SE 11.5 mph 18.4 mph N/A   Clear
6:55 PM 80.6 °F 80.5 °F 55.4 °F 42% 29.87 in 10.0 mi SE 11.5 mph - N/A   Clear
7:15 PM 78.8 °F - 59.0 °F 51% 29.88 in 10.0 mi ESE 4.6 mph - N/A   Clear
7:35 PM 75.2 °F - 59.0 °F 57% 29.88 in 10.0 mi East 5.8 mph - N/A   Clear
7:55 PM 71.6 °F - 59.0 °F 64% 29.88 in 10.0 mi East 8.1 mph - N/A   Clear
8:15 PM 71.6 °F - 59.0 °F 64% 29.88 in 10.0 mi East 5.8 mph - N/A   Clear
8:35 PM 69.8 °F - 59.0 °F 68% 29.89 in 10.0 mi East 5.8 mph - N/A   Clear
8:55 PM 69.8 °F - 59.0 °F 68% 29.89 in 10.0 mi ENE 6.9 mph - N/A   Clear
9:15 PM 69.8 °F - 59.0 °F 68% 29.90 in 10.0 mi ENE 5.8 mph - N/A   Clear
9:35 PM 68.0 °F - 59.0 °F 73% 29.91 in 10.0 mi ENE 5.8 mph - N/A   Clear
9:55 PM 66.2 °F - 59.0 °F 78% 29.91 in 10.0 mi ENE 4.6 mph - N/A   Clear
10:15 PM 68.0 °F - 59.0 °F 73% 29.91 in 10.0 mi East 5.8 mph - N/A   Clear
10:35 PM 68.0 °F - 59.0 °F 73% 29.91 in 10.0 mi ESE 5.8 mph - N/A   Clear
10:55 PM 69.8 °F - 59.0 °F 68% 29.91 in 10.0 mi SE 6.9 mph - N/A   Clear
11:15 PM 69.8 °F - 59.0 °F 68% 29.91 in 10.0 mi SE 5.8 mph - N/A   Clear
11:35 PM 69.8 °F - 59.0 °F 68% 29.90 in 10.0 mi SSE 12.7 mph 19.6 mph N/A   Clear
11:55 PM 71.6 °F - 57.2 °F 60% 29.90 in 10.0 mi SSE 13.8 mph 19.6 mph N/A   Clear